EWG220 LSGG-LPMA

Flight info

Callsign EWG220
Flight time N/A
Altitude 31000
Route DEPUL T544 LSE DCT RUSIT DCT ESIDA DCT LERGA/N0447F330 DCT MINSO DCT NARAK/N0450F350 DCT AGN DCT PIPOR DCT PPN DCT MIRPO DCT DGO DCT NEA DCT ARDID/N0454F370 DCT FTM DCT BUSEN DCT GALPA DCT RAKUN
Aircraft A320/M-SDE3FGHIRWY/LB1

Departure

Time 2026-05-08 05:29
Airport Geneva International Airport (LSGG)

Arrival

Time N/A
Airport Cristiano Ronaldo International Airport (LPMA)
Time Latitude Longitude Altitude Speed Heading
2026-05-08 04:59 46.23422 6.11127 1402 ft 0 kts 136°
2026-05-08 05:17 46.23424 6.11124 1392 ft 3 kts 136°
2026-05-08 05:17 46.23443 6.11098 1395 ft 4 kts 139°
2026-05-08 05:18 46.23464 6.11073 1396 ft 4 kts 147°
2026-05-08 05:18 46.23488 6.11058 1402 ft 4 kts 184°
2026-05-08 05:18 46.23500 6.11062 1402 ft 0 kts 225°
2026-05-08 05:21 46.23499 6.11061 1402 ft 0 kts 225°
2026-05-08 05:22 46.23491 6.11049 1400 ft 3 kts 223°
2026-05-08 05:22 46.23471 6.11023 1393 ft 5 kts 223°
2026-05-08 05:22 46.23429 6.10961 1399 ft 12 kts 227°
2026-05-08 05:22 46.23380 6.10884 1400 ft 9 kts 227°
2026-05-08 05:23 46.23353 6.10824 1401 ft 6 kts 259°
2026-05-08 05:23 46.23358 6.10783 1399 ft 3 kts 296°
2026-05-08 05:23 46.23368 6.10768 1400 ft 1 kts 311°
2026-05-08 05:23 46.23370 6.10764 1402 ft 0 kts 311°
2026-05-08 05:24 46.23395 6.10723 1398 ft 13 kts 311°
2026-05-08 05:24 46.23363 6.10616 1397 ft 15 kts 210°
2026-05-08 05:24 46.23299 6.10514 1409 ft 14 kts 228°
2026-05-08 05:24 46.23214 6.10397 1408 ft 18 kts 230°
2026-05-08 05:25 46.23131 6.10258 1410 ft 19 kts 228°
2026-05-08 05:25 46.23033 6.10106 1407 ft 22 kts 226°
2026-05-08 05:25 46.22930 6.09946 1409 ft 21 kts 225°
2026-05-08 05:25 46.22826 6.09794 1408 ft 21 kts 224°
2026-05-08 05:26 46.22728 6.09648 1414 ft 20 kts 222°
2026-05-08 05:26 46.22628 6.09507 1414 ft 20 kts 226°
2026-05-08 05:26 46.22551 6.09340 1412 ft 20 kts 256°
2026-05-08 05:26 46.22550 6.09231 1416 ft 0 kts 273°
2026-05-08 05:27 46.22551 6.09208 1412 ft 8 kts 282°
2026-05-08 05:27 46.22632 6.09161 1412 ft 18 kts 30°
2026-05-08 05:28 46.22739 6.09325 1412 ft 28 kts 43°
2026-05-08 05:28 46.22801 6.09417 1414 ft 0 kts 46°
2026-05-08 05:28 46.22827 6.09455 1413 ft 24 kts 46°
2026-05-08 05:28 46.23112 6.09877 1411 ft 93 kts 46°
2026-05-08 05:29 46.23701 6.10744 1396 ft 147 kts 45°
2026-05-08 05:29 46.24517 6.11913 1578 ft 170 kts 45°
2026-05-08 05:29 46.25344 6.13069 2328 ft 162 kts 44°
2026-05-08 05:29 46.26161 6.14191 3010 ft 163 kts 43°
2026-05-08 05:30 46.27038 6.15381 3379 ft 183 kts 44°
2026-05-08 05:30 46.27981 6.16762 3644 ft 202 kts 46°
2026-05-08 05:30 46.28959 6.18283 4096 ft 209 kts 47°
2026-05-08 05:30 46.29952 6.19847 4633 ft 213 kts 47°
2026-05-08 05:31 46.30978 6.21410 5189 ft 216 kts 41°
2026-05-08 05:31 46.32344 6.22232 5696 ft 219 kts 359°
2026-05-08 05:31 46.33745 6.21510 6222 ft 219 kts 316°
2026-05-08 05:31 46.34499 6.19639 6764 ft 218 kts 280°
2026-05-08 05:32 46.34372 6.17487 7290 ft 218 kts 245°
2026-05-08 05:32 46.33403 6.15840 7822 ft 219 kts 214°
2026-05-08 05:32 46.32128 6.14634 8390 ft 219 kts 212°
2026-05-08 05:32 46.30843 6.13446 8962 ft 219 kts 212°
2026-05-08 05:33 46.29553 6.12257 9537 ft 220 kts 212°
2026-05-08 05:33 46.28221 6.11026 9882 ft 238 kts 211°
2026-05-08 05:33 46.26777 6.09688 10123 ft 261 kts 212°
2026-05-08 05:33 46.25180 6.08205 10350 ft 285 kts 212°
2026-05-08 05:34 46.23447 6.06596 10557 ft 308 kts 212°
2026-05-08 05:34 46.21580 6.04862 10834 ft 327 kts 212°
2026-05-08 05:34 46.19650 6.03067 11429 ft 333 kts 212°
2026-05-08 05:34 46.17701 6.01208 12110 ft 337 kts 216°
2026-05-08 05:35 46.15958 5.98918 12787 ft 342 kts 228°
2026-05-08 05:35 46.14532 5.96156 13470 ft 346 kts 234°
2026-05-08 05:35 46.13167 5.93281 14132 ft 349 kts 234°
2026-05-08 05:35 46.11788 5.90392 14738 ft 352 kts 234°
2026-05-08 05:36 46.10394 5.87481 15334 ft 354 kts 234°
2026-05-08 05:36 46.08987 5.84548 15938 ft 357 kts 235°
2026-05-08 05:36 46.07569 5.81591 16545 ft 360 kts 235°
2026-05-08 05:36 46.06138 5.78612 17119 ft 363 kts 235°
2026-05-08 05:37 46.04692 5.75611 17694 ft 366 kts 235°
2026-05-08 05:37 46.03232 5.72585 18250 ft 370 kts 235°
2026-05-08 05:37 46.01758 5.69532 18764 ft 372 kts 235°
2026-05-08 05:37 46.00275 5.66465 19265 ft 375 kts 235°
2026-05-08 05:38 45.98781 5.63383 19750 ft 377 kts 235°
2026-05-08 05:38 45.97273 5.60273 20241 ft 380 kts 235°
2026-05-08 05:38 45.95792 5.57118 20734 ft 382 kts 237°
2026-05-08 05:38 45.94353 5.53896 21226 ft 384 kts 238°
2026-05-08 05:39 45.92937 5.50631 21701 ft 386 kts 238°
2026-05-08 05:39 45.92241 5.49014 21930 ft 387 kts 238°
2026-05-08 05:39 45.90837 5.45752 22383 ft 390 kts 238°
2026-05-08 05:39 45.89404 5.42440 22843 ft 392 kts 238°
2026-05-08 05:40 45.87950 5.39113 23295 ft 394 kts 238°
2026-05-08 05:40 45.86479 5.35781 23719 ft 397 kts 238°
2026-05-08 05:40 45.84994 5.32438 24105 ft 398 kts 238°
2026-05-08 05:40 45.83497 5.29081 24512 ft 399 kts 238°
2026-05-08 05:41 45.82000 5.25736 24927 ft 399 kts 238°
2026-05-08 05:41 45.80499 5.22385 25354 ft 399 kts 237°
2026-05-08 05:41 45.79000 5.19032 25759 ft 400 kts 237°
2026-05-08 05:41 45.77503 5.15677 26154 ft 400 kts 237°
2026-05-08 05:42 45.76005 5.12324 26552 ft 400 kts 237°
2026-05-08 05:42 45.74503 5.08958 26942 ft 401 kts 238°
2026-05-08 05:42 45.73063 5.05534 27326 ft 402 kts 239°
2026-05-08 05:42 45.71695 5.02045 27697 ft 403 kts 240°
2026-05-08 05:43 45.70381 4.98560 28089 ft 404 kts 241°
2026-05-08 05:43 45.69057 4.95015 28439 ft 405 kts 241°
2026-05-08 05:43 45.67721 4.91471 28769 ft 406 kts 240°
2026-05-08 05:43 45.66374 4.87922 29088 ft 407 kts 241°
2026-05-08 05:44 45.65061 4.84335 29396 ft 408 kts 242°
2026-05-08 05:44 45.63781 4.80704 29700 ft 409 kts 242°
2026-05-08 05:44 45.62515 4.77053 29998 ft 411 kts 242°
2026-05-08 05:44 45.61247 4.73395 30262 ft 412 kts 242°
2026-05-08 05:45 45.59962 4.69718 30472 ft 414 kts 242°
2026-05-08 05:45 45.58667 4.66045 30729 ft 415 kts 242°
2026-05-08 05:45 45.57360 4.62370 30969 ft 416 kts 242°
2026-05-08 05:46 45.54763 4.55122 31049 ft 405 kts 242°
2026-05-08 05:46 45.52204 4.47980 31054 ft 404 kts 242°
2026-05-08 05:47 45.49644 4.40837 31057 ft 405 kts 242°
2026-05-08 05:47 45.47070 4.33686 31058 ft 406 kts 242°
2026-05-08 05:48 45.44493 4.26538 31054 ft 406 kts 242°
2026-05-08 05:48 45.41922 4.19419 31046 ft 406 kts 242°
2026-05-08 05:49 45.39335 4.12266 31043 ft 407 kts 242°
2026-05-08 05:49 45.36740 4.05120 31037 ft 407 kts 242°
2026-05-08 05:50 45.34137 3.97971 31032 ft 407 kts 242°
2026-05-08 05:50 45.31527 3.90821 31028 ft 408 kts 242°
2026-05-08 05:51 45.28904 3.83675 31026 ft 408 kts 242°
2026-05-08 05:51 45.26280 3.76540 31022 ft 408 kts 241°
2026-05-08 05:52 45.23170 3.69815 31022 ft 408 kts 235°
2026-05-08 05:52 45.19938 3.63254 31020 ft 408 kts 235°
2026-05-08 05:53 45.16684 3.56650 31024 ft 409 kts 235°
2026-05-08 05:53 45.13418 3.50046 31028 ft 409 kts 235°
2026-05-08 05:54 45.10143 3.43453 31032 ft 410 kts 235°
2026-05-08 05:54 45.06865 3.36853 31033 ft 410 kts 235°
2026-05-08 05:55 45.03583 3.30266 31029 ft 410 kts 235°
2026-05-08 05:55 45.00295 3.23680 31024 ft 410 kts 235°
2026-05-08 05:56 44.96999 3.17099 31024 ft 411 kts 235°
2026-05-08 05:56 44.93696 3.10515 31022 ft 411 kts 235°
2026-05-08 05:57 44.90389 3.03936 31023 ft 411 kts 235°
2026-05-08 05:57 44.87074 2.97359 31016 ft 411 kts 236°
2026-05-08 05:58 44.83772 2.90770 31009 ft 411 kts 237°
2026-05-08 05:58 44.80640 2.84019 31003 ft 412 kts 239°
2026-05-08 05:59 44.77597 2.77251 30995 ft 412 kts 239°
2026-05-08 05:59 44.74502 2.70457 30989 ft 412 kts 239°
2026-05-08 06:00 44.71366 2.63697 30983 ft 413 kts 239°
2026-05-08 06:00 44.68213 2.56941 30976 ft 413 kts 239°
2026-05-08 06:01 44.65062 2.50169 30973 ft 414 kts 239°
2026-05-08 06:01 44.61906 2.43386 30972 ft 415 kts 239°
2026-05-08 06:02 44.58737 2.36606 30976 ft 416 kts 239°
2026-05-08 06:02 44.55549 2.29827 30966 ft 416 kts 240°
2026-05-08 06:03 44.52363 2.23047 30970 ft 416 kts 240°
2026-05-08 06:03 44.49196 2.16321 30968 ft 417 kts 240°
2026-05-08 06:04 44.46000 2.09540 30964 ft 418 kts 240°
2026-05-08 06:04 44.44385 2.06123 31068 ft 424 kts 240°
2026-05-08 06:04 44.42751 2.02672 31258 ft 427 kts 240°
2026-05-08 06:04 44.41109 1.99210 31535 ft 427 kts 240°
2026-05-08 06:05 44.39467 1.95752 31870 ft 426 kts 240°
2026-05-08 06:05 44.37826 1.92302 32218 ft 425 kts 240°
2026-05-08 06:05 44.36191 1.88869 32564 ft 424 kts 241°
2026-05-08 06:05 44.35088 1.86557 32808 ft 423 kts 241°
2026-05-08 06:06 44.33455 1.83137 32965 ft 423 kts 241°
2026-05-08 06:06 44.30205 1.76323 32976 ft 421 kts 242°
2026-05-08 06:07 44.27002 1.69506 32972 ft 420 kts 243°
2026-05-08 06:07 44.23876 1.62640 32972 ft 419 kts 243°
2026-05-08 06:08 44.20777 1.55835 32969 ft 418 kts 243°
2026-05-08 06:08 44.17637 1.49011 32968 ft 418 kts 243°
2026-05-08 06:09 44.14485 1.42205 32968 ft 418 kts 243°
2026-05-08 06:09 44.11329 1.35413 32975 ft 417 kts 243°
2026-05-08 06:10 44.08178 1.28640 32973 ft 417 kts 243°
2026-05-08 06:10 44.05032 1.21878 32957 ft 416 kts 243°
2026-05-08 06:11 44.01886 1.15132 32955 ft 416 kts 243°
2026-05-08 06:11 43.98741 1.08402 32950 ft 415 kts 243°
2026-05-08 06:12 43.95592 1.01698 32945 ft 414 kts 243°
2026-05-08 06:12 43.92441 0.95010 32951 ft 414 kts 243°
2026-05-08 06:13 43.89304 0.88375 32946 ft 413 kts 243°
2026-05-08 06:13 43.86252 0.81644 32943 ft 411 kts 245°
2026-05-08 06:14 43.83371 0.74810 32940 ft 411 kts 245°
2026-05-08 06:14 43.80494 0.67978 32938 ft 411 kts 245°
2026-05-08 06:15 43.77573 0.61179 32934 ft 411 kts 244°
2026-05-08 06:15 43.74629 0.54414 32933 ft 410 kts 244°
2026-05-08 06:16 43.71685 0.47651 32924 ft 410 kts 244°
2026-05-08 06:16 43.68746 0.40894 32931 ft 410 kts 244°
2026-05-08 06:17 43.64331 0.30772 32925 ft 410 kts 243°
2026-05-08 06:17 43.61383 0.24038 32929 ft 410 kts 243°
2026-05-08 06:18 43.58429 0.17310 32925 ft 410 kts 243°
2026-05-08 06:18 43.55479 0.10590 32927 ft 410 kts 243°
2026-05-08 06:19 43.52526 0.03879 32927 ft 409 kts 243°
2026-05-08 06:19 43.49566 -0.02826 32919 ft 409 kts 242°
2026-05-08 06:20 43.46599 -0.09521 32914 ft 409 kts 242°
2026-05-08 06:20 43.43636 -0.16201 32910 ft 409 kts 242°
2026-05-08 06:21 43.40675 -0.22860 32902 ft 410 kts 242°
2026-05-08 06:21 43.37675 -0.29575 32897 ft 410 kts 242°
2026-05-08 06:22 43.34692 -0.36246 32900 ft 410 kts 242°
2026-05-08 06:22 43.31713 -0.42911 32900 ft 410 kts 241°
2026-05-08 06:23 43.28745 -0.49530 32898 ft 410 kts 241°
2026-05-08 06:23 43.25750 -0.56187 32902 ft 410 kts 241°
2026-05-08 06:24 43.22749 -0.62839 32906 ft 410 kts 241°
2026-05-08 06:24 43.19745 -0.69479 32907 ft 410 kts 240°
2026-05-08 06:25 43.16734 -0.76119 32912 ft 410 kts 240°
2026-05-08 06:25 43.13726 -0.82749 32916 ft 410 kts 240°
2026-05-08 06:26 43.10707 -0.89386 32924 ft 410 kts 240°
2026-05-08 06:26 43.07685 -0.96015 32922 ft 411 kts 240°
2026-05-08 06:27 43.04661 -1.02642 32918 ft 411 kts 240°
2026-05-08 06:27 43.01629 -1.09258 32918 ft 411 kts 239°
2026-05-08 06:28 42.98593 -1.15874 32923 ft 411 kts 239°
2026-05-08 06:28 42.95546 -1.22481 32923 ft 411 kts 239°
2026-05-08 06:29 42.92516 -1.29054 32941 ft 412 kts 239°
2026-05-08 06:29 42.89463 -1.35655 32938 ft 411 kts 238°
2026-05-08 06:30 42.86397 -1.42250 32956 ft 412 kts 238°
2026-05-08 06:30 42.83336 -1.48844 32952 ft 412 kts 238°
2026-05-08 06:31 42.80268 -1.55441 32954 ft 412 kts 238°
2026-05-08 06:31 42.77195 -1.62029 32958 ft 412 kts 238°
2026-05-08 06:32 42.74139 -1.68626 32957 ft 412 kts 241°
2026-05-08 06:32 42.72107 -1.75841 32953 ft 413 kts 252°
2026-05-08 06:33 42.70435 -1.83315 32949 ft 413 kts 252°
2026-05-08 06:33 42.68745 -1.90795 32945 ft 414 kts 251°
2026-05-08 06:34 42.67048 -1.98268 32940 ft 414 kts 251°
2026-05-08 06:34 42.65343 -2.05739 32946 ft 414 kts 251°
2026-05-08 06:35 42.63635 -2.13211 32947 ft 414 kts 251°
2026-05-08 06:35 42.61896 -2.20677 32952 ft 415 kts 250°
2026-05-08 06:36 42.60088 -2.28111 32949 ft 415 kts 250°
2026-05-08 06:36 42.58265 -2.35536 32956 ft 415 kts 250°
2026-05-08 06:37 42.56447 -2.42962 32953 ft 415 kts 250°
2026-05-08 06:37 42.54627 -2.50399 32950 ft 415 kts 250°
2026-05-08 06:38 42.52814 -2.57785 32948 ft 415 kts 250°
2026-05-08 06:38 42.50987 -2.65216 32945 ft 415 kts 249°
2026-05-08 06:39 42.49156 -2.72645 32941 ft 416 kts 249°
2026-05-08 06:39 42.47318 -2.80064 32935 ft 416 kts 249°
2026-05-08 06:40 42.45464 -2.87485 32932 ft 415 kts 247°
2026-05-08 06:40 42.43116 -2.94607 32931 ft 414 kts 243°
2026-05-08 06:41 42.40705 -3.01688 32931 ft 414 kts 243°
2026-05-08 06:41 42.38286 -3.08761 32932 ft 414 kts 243°
2026-05-08 06:42 42.35867 -3.15836 32932 ft 415 kts 243°
2026-05-08 06:42 42.33445 -3.22910 32934 ft 415 kts 242°
2026-05-08 06:43 42.31014 -3.29975 32930 ft 415 kts 242°
2026-05-08 06:43 42.28581 -3.37043 32929 ft 415 kts 242°
2026-05-08 06:44 42.26140 -3.44105 32932 ft 415 kts 242°
2026-05-08 06:44 42.23693 -3.51172 32932 ft 415 kts 242°
2026-05-08 06:45 42.21263 -3.58187 32928 ft 416 kts 242°
2026-05-08 06:45 42.18808 -3.65252 32928 ft 416 kts 242°
2026-05-08 06:46 42.16345 -3.72310 32925 ft 416 kts 242°
2026-05-08 06:46 42.13872 -3.79370 32922 ft 417 kts 241°
2026-05-08 06:47 42.11395 -3.86430 32919 ft 417 kts 241°
2026-05-08 06:47 42.08909 -3.93499 32916 ft 418 kts 241°
2026-05-08 06:48 42.06415 -4.00579 32915 ft 418 kts 241°
2026-05-08 06:48 42.03929 -4.07604 32915 ft 419 kts 241°
2026-05-08 06:49 42.01391 -4.14650 32916 ft 419 kts 240°
2026-05-08 06:49 41.98735 -4.21632 32912 ft 419 kts 239°
2026-05-08 06:50 41.96052 -4.28586 32913 ft 419 kts 239°
2026-05-08 06:50 41.93376 -4.35552 32905 ft 420 kts 239°
2026-05-08 06:51 41.90705 -4.42540 32906 ft 420 kts 239°
2026-05-08 06:51 41.88036 -4.49526 32904 ft 421 kts 239°
2026-05-08 06:52 41.85354 -4.56517 32907 ft 421 kts 238°
2026-05-08 06:52 41.82665 -4.63501 32905 ft 422 kts 238°
2026-05-08 06:53 41.79970 -4.70486 32903 ft 422 kts 238°
2026-05-08 06:53 41.77269 -4.77465 32907 ft 422 kts 238°
2026-05-08 06:54 41.74562 -4.84439 32909 ft 422 kts 238°
2026-05-08 06:54 41.71852 -4.91421 32906 ft 422 kts 238°
2026-05-08 06:55 41.69135 -4.98398 32910 ft 423 kts 237°
2026-05-08 06:55 41.66430 -5.05318 32900 ft 423 kts 237°
2026-05-08 06:56 41.63694 -5.12304 32889 ft 424 kts 237°
2026-05-08 06:56 41.61396 -5.18148 32889 ft 424 kts 237°
2026-05-08 06:57 41.58665 -5.25075 32886 ft 424 kts 237°
2026-05-08 06:57 41.55912 -5.32064 32887 ft 425 kts 237°
2026-05-08 06:58 41.53157 -5.39060 32889 ft 426 kts 237°
2026-05-08 06:58 41.50392 -5.46057 32885 ft 427 kts 236°
2026-05-08 06:59 41.47610 -5.53045 32881 ft 426 kts 236°
2026-05-08 06:59 41.44821 -5.60029 32885 ft 427 kts 236°
2026-05-08 07:00 41.42023 -5.67025 32888 ft 428 kts 236°
2026-05-08 07:00 41.39230 -5.74029 32886 ft 429 kts 236°
2026-05-08 07:01 41.36420 -5.81043 32890 ft 429 kts 236°
2026-05-08 07:01 41.33602 -5.88057 32891 ft 430 kts 236°
2026-05-08 07:02 41.30775 -5.95074 32893 ft 431 kts 236°
2026-05-08 07:02 41.27936 -6.02107 32893 ft 432 kts 236°